Location: Fort Wayne
(41.1310°N, 85.1290°W)
Time: 22:41:07
(UTC-04:00)

SR - Visible Passes

Search period start: 23 April 2014 00:00
Search period end: 03 May 2014 00:00
Orbit: 580 x 886 km, 66.7° (Epoch: 23 April)

Date Brightness Start Highest point End Pass type
(mag) Time Alt. Az. Time Alt. Az. Time Alt. Az.
23 Apr ? 21:24:47 10° NNW 21:30:16 86° ENE 21:35:46 12° SSE visible
23 Apr ? 23:09:05 10° WNW 23:11:51 14° WSW 23:14:40 10° SW visible
24 Apr ? 22:19:30 10° NW 22:24:05 27° WSW 22:28:52 10° SSW visible
25 Apr ? 21:30:52 10° NW 21:36:11 50° WSW 21:41:48 10° S visible
26 Apr ? 22:27:04 10° WNW 22:29:43 14° WSW 22:32:25 10° SW visible
27 Apr ? 21:37:24 10° NW 21:41:57 26° WSW 21:46:42 10° SSW visible
29 Apr ? 21:45:02 10° WNW 21:47:33 13° WSW 21:50:07 10° SW visible
02 May ? 21:02:59 10° WNW 21:05:22 13° WSW 21:07:48 10° SW visible
